Wind_Speed
11 11 11 11 10 10 10 10 10 10 11 11 11 10 10 9 9 9 9 8 8 8 9 8 8 8 7 7 8 8 8 9 9 10 10 10 10 11 10 10 10 11 11
12 12 12 11 11 11 11 11 11 11 11 11 11 12 11 10 10 10 10 10 10 9 10 9 9 9 9 8 9 9 9 9 9 10 9 10 10 11 11 11 11 11 11
13 13 12 12 12 12 12 12 11 11 10 11 11 12 10 10 10 10 11 11 11 10 11 10 10 10 10 9 9 10 10 10 10 11 10 11 11 11 12 12 12 12 13
15 14 13 13 13 13 12 12 12 12 12 12 12 12 12 12 11 12 12 11 11 11 11 12 12 11 11 11 11 12 11 11 12 12 12 12 13 13 13 13 13 13 13
15 15 14 14 14 14 13 13 13 13 12 13 13 12 12 12 12 12 12 12 12 12 12 13 12 12 12 12 12 12 12 13 13 13 13 14 14 14 15 15 15 14 15
15 15 15 15 15 15 14 14 14 13 13 14 14 14 13 14 14 14 14 13 13 13 14 14 14 14 13 13 13 13 13 14 14 14 14 15 15 15 16 16 16 16 16
16 16 16 16 16 15 15 14 14 14 14 15 14 14 14 14 15 15 15 14 14 14 14 14 15 15 15 15 15 14 15 16 16 16 16 16 16 17 17 17 17 18 18
18 18 18 17 16 16 15 15 15 14 14 15 15 15 14 15 15 15 15 14 14 14 14 15 15 16 16 16 16 16 17 17 18 18 18 18 18 18 18 18 18 18 19
20 20 19 18 17 17 16 16 16 15 16 15 16 16 16 16 16 15 15 15 15 15 15 16 17 17 17 18 18 19 19 19 19 19 19 19 19 19 19 19 20 20 19
21 20 20 19 19 18 17 17 17 17 17 16 16 17 17 17 17 16 16 16 16 16 16 17 18 18 18 19 20 21 21 21 21 21 21 20 20 20 20 20 21 21 20
21 20 20 20 19 19 18 18 18 18 17 17 18 18 18 18 18 18 18 18 18 18 17 17 18 19 19 19 20 20 21 22 22 22 22 21 22 22 22 21 21 21 21
22 21 21 20 19 19 19 18 18 18 18 18 19 19 19 19 19 19 19 19 19 18 18 18 19 19 19 20 20 20 21 22 22 22 22 22 23 23 23 22 22 22 21
22 22 22 21 20 20 20 19 19 19 19 19 20 20 20 20 20 20 20 19 19 19 19 20 20 20 21 21 21 22 22 22 23 23 23 22 23 23 23 23 23 23 22
23 22 22 21 21 21 21 20 20 21 21 21 21 21 21 21 21 21 20 21 21 21 21 21 21 22 22 23 23 23 24 24 24 24 24 23 24 24 24 23 23 22 22
25 23 23 22 22 22 22 22 22 22 22 22 22 22 22 22 22 22 22 22 22 22 22 22 23 23 23 24 24 25 25 25 25 25 24 24 24 24 24 23 23 23 23
25 24 23 23 23 23 24 24 24 23 23 23 23 23 23 23 24 23 23 23 23 23 23 24 24 24 24 24 25 26 26 26 26 25 24 23 23 23 23 23 23 24 24
26 25 24 24 24 24 24 24 24 24 24 24 24 24 24 24 24 24 24 24 24 24 24 24 25 25 25 25 26 26 26 26 25 25 24 23 23 23 24 24 24 24 24
26 26 25 25 25 25 25 25 25 26 25 25 25 25 25 24 24 24 25 25 25 26 25 25 25 25 25 26 26 26 27 26 25 24 24 24 23 23 24 24 24 25 25
27 27 26 26 25 26 27 27 26 26 26 25 25 26 25 26 26 26 26 26 26 26 26 25 25 26 26 27 27 27 26 26 26 25 24 25 25 25 25 25 26 26 26
28 28 28 27 27 27 27 27 27 27 26 26 26 26 26 26 27 27 27 27 26 26 26 26 26 26 27 27 27 26 26 26 26 26 26 26 26 26 26 26 26 26 26
29 28 28 28 28 28 27 27 27 26 27 27 26 26 27 27 27 27 27 27 27 26 27 27 27 27 27 27 26 26 26 26 26 27 27 27 27 26 26 26 27 27 27
28 28 28 28 28 27 27 27 26 26 26 26 26 26 27 27 27 27 27 27 26 26 27 27 27 28 27 27 26 26 26 26 26 26 26 26 26 26 27 27 27 28 27
28 28 27 27 28 28 28 27 27 27 27 27 26 27 27 27 26 27 28 28 27 27 26 26 26 27 27 26 27 27 26 26 25 24 24 25 25 25 26 26 27 26 26
28 27 26 27 28 28 28 28 27 27 27 27 27 27 27 27 28 28 28 27 26 26 25 25 25 26 26 26 26 26 26 25 24 24 24 24 25 25 25 25 25 26 26
28 28 27 27 27 27 27 27 27 27 27 27 27 27 27 27 27 27 28 27 26 26 25 25 25 26 26 26 27 26 25 24 24 24 25 25 24 25 25 25 25 25 26
28 28 28 28 28 27 27 27 27 26 26 26 26 26 27 27 28 28 28 28 27 26 26 25 25 26 26 26 27 27 26 25 25 25 25 25 25 25 25 26 26 26 26
Wind_Direction
341 340 337 337 335 331 333 334 334 329 323 321 317 315 312 310 310 308 308 309 309 305 304 303 302 299 297 298 297 296 298 303 301 295 294 293 292 290 287 287 290 290 295
336 337 336 333 331 328 327 327 327 323 318 317 315 312 307 301 299 299 300 301 301 299 296 295 299 299 297 296 296 298 298 302 303 302 300 300 299 297 294 293 292 291 292
334 332 332 331 328 324 322 320 323 321 317 315 314 314 306 301 300 297 297 297 297 296 294 292 293 294 294 294 295 296 295 298 299 302 303 299 300 298 296 295 292 291 291
331 330 330 328 326 322 320 316 315 316 315 314 312 310 306 301 301 301 297 296 295 295 293 291 291 290 290 289 289 293 294 295 297 298 298 298 297 297 299 297 295 291 290
327 327 325 324 322 321 318 316 313 311 310 311 309 306 304 302 301 298 294 292 290 291 291 289 286 287 289 289 289 290 291 293 294 296 297 296 296 294 295 296 296 294 292
324 323 322 320 319 318 316 312 312 309 309 312 310 305 302 299 297 295 293 290 289 288 286 287 285 283 286 288 287 288 291 292 293 295 296 296 296 294 294 294 293 292 293
319 320 320 319 317 316 315 313 312 308 305 306 306 304 302 301 299 295 294 292 287 287 287 285 286 285 285 286 287 288 291 292 294 294 294 294 294 294 294 294 293 292 292
313 315 317 318 317 314 311 310 311 309 305 303 304 303 302 303 301 298 296 295 290 287 287 286 285 283 283 285 286 286 288 290 291 294 294 294 291 292 292 293 293 293 292
310 312 314 313 312 312 308 305 304 304 302 301 302 304 304 303 301 298 297 295 293 289 285 284 285 284 284 284 284 286 289 288 289 291 293 293 290 289 292 291 290 292 293
307 309 309 308 308 308 306 303 301 299 298 298 298 300 301 301 301 299 296 294 293 291 288 284 285 284 284 284 285 287 288 288 289 288 289 290 289 290 292 291 289 291 292
305 306 307 306 305 306 304 303 301 299 298 298 297 298 299 300 301 301 297 294 292 292 291 290 287 285 284 284 286 287 288 288 288 287 287 288 288 288 290 290 289 289 291
303 303 305 304 303 303 303 301 300 298 297 297 296 297 297 298 299 299 297 295 293 291 290 289 289 289 288 287 287 290 289 289 288 287 287 286 287 287 287 290 290 289 289
299 300 302 301 301 300 300 298 297 296 295 295 294 295 295 295 296 297 295 294 293 292 291 289 289 289 288 289 289 290 290 289 288 287 287 287 287 287 286 287 288 289 288
296 297 298 299 298 298 297 296 295 296 295 294 293 293 293 293 293 293 293 292 291 290 289 289 290 289 288 289 289 289 290 289 289 288 286 286 287 286 285 285 286 287 287
293 294 295 296 295 295 295 294 293 293 294 294 292 292 292 292 291 292 292 291 290 290 290 289 290 291 290 289 289 289 289 288 288 289 287 287 287 286 285 285 285 286 286
290 292 293 294 294 294 293 292 291 292 293 293 291 289 290 290 291 290 291 290 290 290 290 290 291 291 291 291 291 290 289 289 289 289 288 286 285 285 285 284 284 285 286
290 290 292 293 293 292 293 292 291 290 290 290 289 288 287 288 290 291 291 289 289 289 290 290 291 293 293 292 291 291 290 289 288 287 287 287 285 285 285 284 283 284 284
288 290 291 290 290 291 291 292 290 290 290 290 289 288 288 289 289 290 291 290 289 289 289 291 291 293 293 291 289 291 290 289 288 287 286 289 285 286 287 285 284 284 284
286 288 290 290 290 291 291 291 290 288 288 289 289 289 287 287 287 289 290 290 289 288 288 289 290 292 294 293 290 289 290 288 286 285 285 286 285 285 285 284 282 282 283
285 286 288 289 289 291 290 290 289 287 286 285 287 288 287 287 288 288 289 289 286 285 286 287 289 290 291 293 292 289 289 287 284 283 284 284 283 283 283 284 283 282 283
285 285 287 288 289 290 290 290 288 287 288 285 284 286 286 286 287 288 289 288 285 284 285 286 288 289 291 291 290 291 289 288 286 284 283 283 283 283 283 283 283 282 283
283 285 287 288 289 289 289 290 287 286 288 287 285 286 286 286 287 288 288 286 285 285 285 286 287 288 289 289 288 288 288 288 287 286 285 285 285 284 284 285 285 284 283
282 283 285 286 287 288 288 288 287 287 288 288 287 288 287 286 287 288 288 287 286 285 286 288 290 291 290 290 289 289 289 289 288 289 287 286 286 286 288 289 289 288 286
282 283 284 286 287 286 285 284 284 285 286 286 287 289 288 286 286 287 287 286 286 286 286 288 290 291 292 291 290 290 289 287 286 289 289 287 287 287 288 288 288 289 287
281 283 284 285 287 286 286 285 285 284 284 286 288 289 288 288 289 288 286 284 287 289 287 288 288 290 292 292 290 288 286 286 288 289 288 286 285 285 286 286 287 288 289
279 281 283 284 285 286 287 287 286 285 285 287 288 288 288 288 288 288 286 285 286 287 288 287 288 290 292 293 291 287 286 286 286 286 286 285 284 285 287 287 287 288 289
Height
5902 5900 5898 5897 5896 5895 5894 5893 5892 5891 5890 5889 5888 5888 5887 5887 5886 5886 5886 5885 5885 5885 5885 5885 5884 5884 5884 5884 5884 5883 5883 5883 5882 5882 5881 5881 5881 5880 5879 5879 5879 5878 5877
5901 5900 5898 5897 5895 5894 5893 5892 5891 5890 5889 5888 5887 5886 5886 5885 5885 5885 5884 5884 5884 5883 5883 5883 5883 5883 5882 5882 5882 5882 5881 5881 5880 5879 5878 5879 5879 5878 5877 5877 5876 5875 5875
5901 5899 5897 5896 5894 5893 5892 5891 5890 5889 5888 5887 5886 5885 5884 5884 5883 5883 5882 5882 5882 5881 5881 5881 5881 5880 5880 5880 5880 5880 5879 5879 5878 5877 5877 5877 5877 5876 5875 5875 5874 5873 5873
5900 5898 5896 5895 5893 5892 5890 5889 5888 5887 5886 5886 5885 5884 5883 5882 5882 5881 5880 5880 5880 5879 5879 5879 5879 5878 5878 5878 5878 5877 5877 5877 5876 5876 5875 5874 5874 5873 5873 5872 5871 5871 5870
5899 5897 5895 5893 5892 5890 5889 5888 5887 5886 5885 5884 5883 5882 5881 5880 5879 5879 5878 5878 5877 5877 5876 5876 5876 5875 5875 5875 5875 5875 5874 5874 5873 5873 5872 5871 5871 5870 5870 5869 5868 5868 5867
5898 5896 5894 5892 5890 5888 5887 5886 5885 5883 5883 5882 5881 5880 5879 5878 5877 5876 5876 5875 5874 5874 5874 5873 5872 5872 5872 5872 5872 5871 5871 5870 5870 5869 5869 5868 5867 5866 5866 5865 5865 5864 5863
5896 5894 5892 5890 5888 5886 5885 5883 5882 5881 5880 5879 5878 5877 5876 5875 5874 5873 5873 5872 5871 5871 5870 5870 5869 5869 5868 5868 5868 5868 5867 5867 5866 5866 5865 5864 5863 5863 5862 5861 5860 5860 5859
5894 5892 5890 5887 5886 5884 5882 5881 5879 5878 5877 5876 5875 5874 5873 5872 5871 5870 5869 5868 5868 5867 5867 5866 5866 5865 5864 5864 5864 5864 5863 5863 5862 5861 5861 5860 5859 5859 5858 5857 5856 5855 5854
5891 5889 5887 5884 5882 5881 5879 5878 5876 5875 5874 5873 5872 5871 5870 5869 5867 5866 5865 5865 5864 5863 5863 5862 5862 5861 5860 5860 5859 5859 5858 5858 5857 5857 5856 5855 5855 5854 5853 5852 5851 5851 5850
5888 5885 5883 5881 5879 5877 5876 5874 5873 5872 5871 5870 5869 5867 5866 5865 5863 5862 5861 5861 5860 5859 5858 5858 5857 5857 5856 5855 5854 5854 5853 5853 5852 5852 5851 5850 5850 5849 5848 5847 5846 5845 5844
5883 5881 5879 5877 5876 5874 5872 5871 5869 5868 5867 5866 5864 5863 5862 5861 5859 5858 5857 5856 5856 5855 5854 5853 5853 5852 5851 5850 5849 5849 5848 5847 5847 5846 5845 5845 5844 5843 5842 5841 5840 5839 5839
5879 5877 5875 5873 5872 5870 5868 5867 5865 5864 5863 5861 5860 5859 5858 5856 5855 5854 5853 5852 5851 5850 5849 5849 5848 5846 5846 5845 5844 5843 5842 5841 5841 5840 5839 5838 5838 5837 5836 5835 5834 5833 5833
5875 5873 5871 5869 5868 5866 5864 5862 5861 5859 5858 5857 5856 5854 5853 5852 5850 5849 5848 5847 5846 5845 5844 5843 5842 5841 5840 5839 5838 5837 5836 5835 5834 5834 5832 5832 5831 5831 5830 5829 5828 5828 5827
5871 5869 5867 5865 5863 5861 5859 5857 5855 5854 5853 5852 5851 5849 5848 5847 5845 5844 5843 5841 5840 5839 5838 5837 5836 5835 5834 5833 5832 5831 5830 5829 5828 5827 5826 5826 5825 5824 5823 5823 5822 5821 5821
5865 5864 5862 5860 5858 5856 5854 5852 5851 5849 5848 5846 5845 5844 5842 5841 5839 5838 5837 5836 5834 5833 5832 5831 5830 5829 5828 5827 5826 5825 5823 5822 5821 5820 5820 5819 5818 5818 5817 5816 5816 5815 5814
5860 5858 5856 5855 5853 5851 5849 5847 5845 5844 5842 5841 5839 5838 5836 5835 5833 5832 5831 5829 5828 5827 5826 5825 5823 5822 5821 5820 5819 5818 5816 5815 5814 5814 5813 5812 5812 5811 5810 5810 5809 5809 5808
5854 5852 5851 5849 5847 5845 5843 5841 5839 5838 5836 5835 5833 5831 5830 5828 5827 5825 5824 5823 5822 5821 5819 5818 5817 5815 5814 5813 5811 5810 5809 5808 5807 5806 5806 5805 5805 5804 5804 5803 5802 5802 5801
5848 5846 5845 5843 5841 5839 5837 5835 5833 5831 5830 5828 5827 5825 5823 5822 5820 5819 5817 5816 5815 5814 5812 5811 5810 5808 5807 5805 5804 5803 5801 5800 5799 5799 5799 5798 5797 5797 5797 5796 5795 5795 5794
5842 5840 5838 5837 5835 5832 5830 5828 5827 5825 5823 5821 5820 5818 5817 5815 5814 5812 5811 5809 5808 5806 5805 5804 5803 5801 5800 5798 5796 5795 5794 5793 5792 5792 5792 5791 5790 5790 5789 5789 5788 5788 5787
5835 5834 5832 5830 5828 5826 5823 5821 5819 5817 5816 5814 5813 5811 5809 5808 5807 5805 5803 5802 5800 5799 5798 5797 5796 5794 5792 5790 5789 5787 5786 5785 5785 5785 5784 5784 5783 5783 5782 5781 5780 5780 5780
5828 5826 5825 5823 5821 5819 5816 5814 5812 5810 5808 5807 5805 5804 5802 5801 5799 5798 5796 5794 5793 5792 5791 5790 5788 5787 5785 5783 5781 5780 5779 5778 5778 5777 5777 5776 5776 5775 5774 5773 5773 5772 5771
5820 5819 5817 5815 5814 5811 5809 5807 5805 5803 5802 5800 5799 5797 5795 5793 5792 5790 5789 5787 5786 5785 5783 5782 5781 5779 5777 5776 5774 5773 5772 5771 5770 5770 5769 5769 5768 5767 5767 5766 5765 5764 5763
5812 5811 5810 5808 5806 5804 5802 5800 5798 5797 5795 5794 5792 5790 5788 5787 5785 5783 5781 5779 5778 5777 5776 5775 5773 5772 5770 5768 5767 5766 5764 5763 5763 5762 5762 5761 5760 5760 5759 5758 5757 5756 5755
5804 5803 5802 5801 5799 5797 5795 5793 5791 5790 5788 5787 5785 5784 5782 5780 5778 5776 5775 5773 5771 5770 5769 5768 5767 5765 5763 5761 5760 5759 5758 5757 5756 5756 5755 5754 5753 5752 5752 5751 5750 5748 5747
5798 5796 5795 5794 5792 5790 5788 5786 5784 5783 5781 5780 5778 5776 5775 5773 5771 5769 5767 5766 5765 5763 5762 5761 5760 5758 5757 5755 5753 5752 5751 5750 5750 5749 5748 5747 5746 5745 5744 5743 5742 5741 5740
5790 5789 5788 5786 5784 5782 5781 5779 5777 5776 5774 5773 5771 5769 5768 5766 5764 5762 5760 5759 5758 5756 5755 5754 5753 5752 5750 5748 5746 5745 5744 5743 5742 5741 5741 5740 5739 5738 5737 5736 5735 5733 5732